Location: Adalina Homes
(14.6283°N, 121.1075°E)
Time: 01:18:54
(UTC+00:00)

Daily predictions for brighter satellites

Satellite Brightness Start Highest point End
(mag) Time Altitude Azimuth Time Altitude Azimuth Time Altitude Azimuth
Ariane H10 3.8 10:30:58 10° WSW 10:33:54 32° S 10:40:46 10° ESE
Atlas Centaur 2 3.1 10:30:25 10° WNW 10:38:11 88° NNE 10:46:48 10° ESE
STARLINK-1053 4.1 10:34:44 10° NW 10:38:48 61° SW 10:42:53 10° SSE
Cosmos 1441 Rocket 4.0 10:35:24 10° NNW 10:39:17 58° W 10:43:11 10° S
CSL-04 Rocket 4.3 10:34:20 10° SE 10:39:17 38° ENE 10:44:18 10° N
STARLINK-1231 3.9 10:39:16 10° SW 10:43:22 73° NW 10:47:30 10° NNE
STARLINK-1061 4.3 10:39:46 10° NW 10:43:47 52° SW 10:47:49 10° SSE
deb FW4D 4.5 10:41:10 10° WSW 10:44:34 71° NNW 10:46:31 10° ENE
Cosmos 1802 Rocket 4.3 10:39:07 10° N 10:45:27 80° W 10:51:51 10° S
STARLINK-1065 4.5 10:42:33 10° NW 10:46:31 47° SW 10:50:29 10° SSE
STARLINK-1232 4.2 10:44:16 10° SW 10:48:21 63° NW 10:52:26 10° NNE
NOSS 2-3 (E) 4.3 10:44:40 10° S 10:48:26 29° ESE 10:52:02 10° NE
Orbus 7S 4.1 10:46:19 10° W 10:48:47 34° NNW 10:51:30 10° NE
ASTRO E2 3.9 10:45:38 10° SSW 10:48:51 24° SSE 10:52:04 10° E
ATLAS 5 CENTAUR R/B 2.9 10:47:04 10° SW 10:48:51 14° S 10:51:42 10° SSE
BREEZE-M DEB (TANK) 4.4 10:45:20 10° SW 10:49:58 88° SE 11:02:50 10° NE
Cosmos 1602 3.7 10:49:47 10° N 10:53:36 90° WSW 10:57:24 10° S
Cosmos 1725 Rocket 4.0 10:47:38 10° N 10:53:49 77° E 11:00:01 10° S
Milstar 3 Cent rocket 4.2 10:49:42 10° S 10:54:12 19° SE 11:00:49 10° E
SL-16 R/B 3.7 10:49:30 10° NW 10:54:40 37° WSW 10:59:51 10° S
Cosmos 1184 Rocket 4.1 10:55:06 10° NNE 10:57:40 22° E 10:59:38 13° SE
Ariane Rocket 4.4 10:54:54 11° ESE 10:58:19 19° ENE 11:01:52 10° NNE
YAOGAN 1 2.7 10:57:33 10° S 11:01:52 77° W 11:06:10 10° NNW
Cosmos 1707 Rocket 3.7 10:59:05 10° S 11:03:25 74° W 11:07:42 10° N
OAO 3 Rocket 3.5 11:02:52 10° WNW 11:07:46 63° SW 11:11:44 15° SE
NOSS 2-3 (D) 3.6 11:04:12 10° S 11:08:21 48° ESE 11:12:21 10° NE
Intelsat 5-1 Rocket 2.2 11:11:10 10° SSW 11:13:00 20° SSE 11:13:00 20° SSE
Delta 2 Rocket 3.9 11:12:51 10° NW 11:15:57 34° NNE 11:17:44 20° E
Cosmos 1869 Rocket 3.5 11:11:41 10° N 11:16:00 89° ENE 11:20:19 10° S
Cosmos 1862 Rocket 3.6 11:12:40 10° S 11:17:04 61° E 11:21:26 10° NNE
Hubble Space Telescope 3.5 11:15:34 10° NW 11:17:53 14° N 11:20:12 10° NNE
USA 229 DEB 4.2 11:11:38 10° SW 11:17:53 58° WNW 11:24:18 10° NNE
USA 229 4.2 11:11:45 10° SW 11:18:00 58° WNW 11:24:24 10° NNE
STARLINK-1196 4.4 11:15:13 10° N 11:18:09 26° NE 11:19:16 22° E
CSL-04 Debris 4.4 11:13:44 10° S 11:19:06 73° WSW 11:24:28 10° NNW
ERBS 2.7 11:16:21 10° S 11:19:24 36° ESE 11:22:27 10° NE
STARLINK-1269 4.3 11:16:56 10° S 11:20:37 32° ESE 11:24:19 10° ENE
ARGOS 3.8 11:18:39 19° SE 11:21:46 35° ENE 11:26:34 10° N
STARLINK-1181 4.2 11:19:44 10° NNW 11:22:49 30° NE 11:23:46 26° E
STARLINK-1183 4.1 11:21:02 10° NNW 11:24:09 31° NE 11:25:03 27° E
Cosmos 1603 3.7 11:18:34 10° NNW 11:24:17 83° ENE 11:29:19 14° SSE
STARLINK-1200 4.1 11:21:47 10° SSW 11:25:36 37° ESE 11:29:25 10° NE
Cosmos 1943 3.2 11:21:40 10° N 11:27:15 67° ENE 11:31:12 20° SSE
NOSS 3-1 (A) 3.2 11:22:27 10° SSW 11:27:33 74° WNW 11:32:58 10° NNE
Cosmos 2233 Rocket 4.0 11:23:52 10° N 11:30:01 83° W 11:36:14 10° S
STARLINK-1192 3.9 11:26:39 10° SSW 11:30:34 42° SE 11:34:29 10° NE
Cosmos 1733 Rocket 3.8 11:27:14 10° NNE 11:31:02 30° E 11:31:32 29° E
STARLINK-1194 3.7 11:28:43 10° NNW 11:32:00 41° NE 11:32:37 37° E
HJ-1C 4.0 11:30:19 13° S 11:33:06 54° W 11:36:20 10° NNW
STARLINK-1193 3.6 11:30:08 10° NNW 11:33:26 42° NE 11:33:58 39° E
STARLINK-1184 3.6 11:31:30 10° NNW 11:34:51 45° NE 11:35:22 41° E
STARLINK-1244 3.7 11:31:31 10° SSW 11:35:31 49° SE 11:39:31 10° NE
STARLINK-1127 3.5 11:32:56 10° NNW 11:36:17 47° NE 11:36:44 44° E
CZ-2C R/B 2.7 11:30:49 10° NNE 11:36:20 59° ESE 11:41:49 10° S
STARLINK-1142 3.4 11:34:24 10° NNW 11:37:45 49° NE 11:38:08 46° ENE
Cosmos 2278 Rocket 3.2 11:38:54 25° E 11:38:54 25° E 11:42:33 10° NE
NOSS 2-3 (C) 4.1 11:34:53 10° SW 11:39:04 57° WNW 11:43:10 10° NNE
STARLINK-1137 3.3 11:35:50 10° NNW 11:39:15 52° NE 11:39:36 50° ENE
OAO 2 Rocket 3.7 11:34:19 10° NW 11:39:31 56° NNE 11:41:41 33° E
STARLINK-1138 3.5 11:36:25 10° SSW 11:40:28 58° SE 11:44:31 10° NE
STARLINK-1195 3.3 11:37:21 10° NNW 11:40:45 56° NE 11:41:04 53° ENE
STARLINK-1176 3.2 11:37:51 10° NNW 11:41:29 71° NE 11:42:03 57° ESE
STARLINK-1152 3.2 11:38:50 10° NNW 11:42:15 59° NE 11:42:30 57° ENE
Tsikada Rocket 4.4 11:41:34 29° SE 11:43:48 39° E 11:49:29 10° NNE
STARLINK-1203 3.5 11:40:25 10° SSW 11:44:33 68° SE 11:48:43 10° NE
CZ-4 R/B 4.4 11:42:39 10° SW 11:44:36 13° W 11:46:35 10° WNW
STARLINK-1143 3.4 11:41:21 10° SSW 11:45:26 67° SE 11:49:25 11° NE
Cosmos 2346 Rocket 4.4 11:40:55 15° SSE 11:45:54 60° E 11:51:51 10° NNE
STARLINK-1179 3.1 11:42:58 10° NW 11:46:39 84° ENE 11:47:01 69° SE
Cosmos 389 Rocket 3.3 11:48:04 35° NE 11:48:04 35° NE 11:50:18 10° NNE
FREGAT/IRIS 4.0 11:48:48 26° N 11:48:48 26° N 11:50:10 10° N
Meteor 1-18 Rocket 4.5 11:48:24 39° ESE 11:49:27 43° E 11:54:40 10° NNE
STARLINK-1241 3.4 11:46:17 10° SSW 11:50:24 79° SE 11:54:31 10° NE
Cosmos 1703 Rocket 4.0 11:51:39 42° ENE 11:51:39 42° ENE 11:55:11 10° NNE
Cosmos 44 3.3 11:48:06 10° NNW 11:53:02 88° WSW 11:54:47 42° SSE
STARLINK-1239 3.5 11:51:14 10° SW 11:55:22 89° NW 11:59:23 11° NE
